Lid_Strength_Index
3 3 3 3 3 4 4 4 4 4 4 3 3 3 3 3 4 6 10 5 4 0 1 4 4 4 5 6 6 7 11 14 13 12 11 7 8 7 7 7 7 5 5 4 2
4 4 4 4 3 3 4 4 5 4 4 3 3 3 3 3 6 9 4 1 -0 -0 4 5 6 7 10 9 8 9 12 11 9 8 9 8 8 8 8 9 8 6 4 3 2
4 4 4 4 4 3 3 4 5 4 4 4 3 2 3 4 9 8 1 -0 -1 1 5 6 7 9 11 9 9 9 11 9 9 7 7 8 9 9 9 10 8 7 6 4 3
4 4 4 4 4 4 3 4 4 4 5 4 3 3 2 6 13 8 -1 -1 -1 5 7 8 9 11 11 11 8 10 8 8 8 7 7 8 8 9 8 8 7 5 4 4 4
4 4 4 4 4 4 4 4 4 4 4 4 4 3 7 9 9 3 -1 -1 5 7 8 9 10 10 10 10 9 9 9 7 7 6 7 7 8 8 9 7 5 4 4 4 4
4 4 4 4 4 4 4 4 3 4 4 3 3 3 8 12 6 2 4 5 5 7 8 8 9 8 10 10 9 8 8 8 8 8 8 8 8 8 8 6 6 5 5 5 4
4 4 5 5 4 4 4 4 4 3 3 3 2 3 8 10 6 4 4 5 5 6 8 7 7 8 9 9 7 8 10 9 9 8 8 8 10 10 8 6 6 6 6 6 5
5 4 4 5 4 4 4 4 4 3 2 2 2 6 11 7 6 6 5 5 3 5 6 7 7 7 8 7 8 10 10 13 9 8 8 8 13 9 7 7 7 6 6 6 6
5 5 5 5 5 5 5 4 3 3 2 1 6 9 11 4 6 6 5 6 4 4 5 5 6 7 7 10 12 11 14 14 11 8 9 9 12 9 7 7 7 7 7 7 8
5 5 5 5 5 5 4 3 3 3 2 2 5 9 8 8 6 5 5 5 6 5 5 7 9 10 9 10 15 13 14 13 12 10 10 11 10 10 8 7 7 7 8 7 8
5 5 5 5 5 5 4 5 6 7 5 9 9 9 8 5 5 5 3 5 4 6 9 8 11 12 10 9 9 10 12 12 10 9 10 11 10 9 10 8 8 8 8 7 7
5 5 5 5 6 4 5 4 4 3 9 5 5 6 5 5 7 7 4 6 7 9 8 9 12 9 9 9 9 11 12 12 10 9 10 11 11 10 10 9 7 7 7 7 8
6 6 5 6 6 7 6 6 5 4 10 8 6 6 6 6 8 8 6 7 8 9 9 11 9 8 9 10 11 13 12 12 11 11 10 11 12 12 9 9 8 7 6 6 7
6 6 6 6 7 10 5 7 6 4 13 11 7 6 7 7 9 6 4 6 9 10 9 10 8 9 10 10 10 13 11 12 10 12 15 11 17 14 12 9 8 8 7 6 7
6 6 6 6 11 11 6 8 5 7 23 11 7 7 9 9 9 9 6 6 9 9 9 11 11 11 11 10 10 11 11 12 13 14 16 15 16 13 12 11 9 7 6 6 6
7 7 6 9 11 10 9 7 6 15 22 10 8 11 10 10 10 8 8 5 6 9 10 9 10 10 10 10 10 10 11 12 14 15 18 14 16 15 13 12 10 8 7 6 7
6 6 7 8 13 9 7 7 14 20 11 11 11 11 11 11 11 10 9 10 10 13 13 11 11 10 9 11 11 11 13 17 17 18 18 13 15 14 11 10 9 9 10 10 8
6 6 9 8 9 8 5 10 20 14 12 8 9 10 12 11 11 11 11 11 10 11 13 14 15 11 10 10 11 12 12 16 19 19 17 13 16 14 11 9 10 10 10 10 10
6 11 11 9 7 7 8 15 15 12 9 10 10 13 14 12 11 12 12 12 10 10 13 14 13 10 10 10 9 12 13 11 15 15 17 15 14 12 11 11 10 11 11 11 10
10 12 10 6 6 7 11 14 12 8 8 9 12 12 14 13 13 13 13 11 10 9 9 11 14 11 11 10 10 10 10 14 16 19 20 17 16 15 12 12 11 11 11 10 9
11 13 7 3 5 12 19 15 10 7 7 10 12 12 12 12 11 13 13 11 9 9 9 11 12 13 11 12 12 12 13 13 13 16 18 19 16 12 12 11 11 11 10 10 9
12 17 6 5 12 13 16 12 8 9 8 8 9 10 11 11 12 11 12 11 9 9 10 10 12 15 13 11 10 11 12 13 17 17 16 17 16 11 11 10 10 10 10 9 9
13 12 5 5 16 15 12 11 10 10 10 10 10 9 10 11 13 11 10 8 9 9 10 10 14 17 15 13 11 13 13 13 14 14 16 18 16 10 10 10 10 10 9 9 9
12 17 12 8 10 12 12 12 12 9 10 10 10 10 11 11 10 12 11 8 8 9 6 8 12 13 15 14 13 14 13 14 14 17 16 15 14 12 11 11 10 10 10 9 10
12 15 12 12 13 12 10 11 11 11 8 8 10 10 11 13 12 12 10 9 9 7 10 10 13 13 12 11 12 12 13 13 14 13 14 13 13 12 10 10 10 10 10 10 10
13 13 12 13 12 12 11 12 12 11 10 11 11 9 9 12 11 13 11 11 11 9 10 11 14 13 14 11 12 13 12 12 13 13 12 13 13 10 10 10 10 10 10 10 10
11 10 11 12 13 13 13 13 12 10 9 8 10 10 10 10 8 8 8 9 9 10 11 12 13 15 16 13 13 16 12 12 12 12 11 14 11 11 11 11 11 10 10 10 11